Content
SEND FEEDBACK

Daily
Averages
Monthly
Summary
United States of America

TOLBERT, TEXAS


Home > North America > United States > Texas
Elevation: 1390 feet     Latitude: 34 16N     Longitude: 099 30W

WEATHER
 
SELECT A DAY
Number of Records: 261,894;   Date Range: 6/6/03 - 9/18/14
 
SHARE

PRINT THIS DATA

[ ← Previous Day ]
WEATHER ALMANAC - FEBRUARY 16, 2013
[ Next Day → ]
[ °C ]   °F
Weather ElementAverageHighLow
Temperature41.6 °F58.5 °F (4:55 pm)29.1 °F (8:15 am)
Dewpoint28.3 °F32.5 °F (12:15 pm)25.5 °F (4:55 am)
Humidity63 %95 % (9:35 am)31 % (4:55 pm)
Barometer30.27 in30.42 in (9:15 am)30.08 in (11:55 pm)
Wind Speed7.1 mph12.7 mph (2:55 pm)
Wind Gust19.6 mph (2:55 pm)
Weather ElementAverage
Visibility9.1 mi
Wind DirectionSSW (199.5 °)

Weather ElementTotal
Precipitation---
Heating Degree Days21.2 (Base 65)
Averaged from 64 records on February 16, 2013
WEATHER CONDITIONS BREAKOUT
WIND DIRECTION BREAKOUT
WEATHER BY HOUR - FEBRUARY 16, 2013
[ °C ]   °F
Local TimeTemperatureDewpointHumidityBarometerVisibilityWind DirectionWind SpeedGust SpeedPrecipitationEventsConditions
12:35 AM35.1 °F25.7 °F69 %30.41 in10.0 miNE (40°)3.5 mphScattered Clouds
12:55 AM33.8 °F25.7 °F72 %30.40 in10.0 miCalmScattered Clouds
1:15 AM33.6 °F25.7 °F73 %30.40 in10.0 miCalmScattered Clouds
1:35 AM32.9 °F25.7 °F75 %30.39 in10.0 miSW (220°)4.6 mphScattered Clouds
1:55 AM31.5 °F25.9 °F80 %30.39 in10.0 miSW (220°)9.2 mphScattered Clouds
2:15 AM31.3 °F25.9 °F80 %30.38 in10.0 miWSW (240°)5.8 mphScattered Clouds
2:35 AM31.1 °F26.2 °F82 %30.38 in10.0 miWSW (240°)9.2 mphScattered Clouds
2:55 AM31.6 °F26.2 °F80 %30.37 in10.0 miWSW (240°)10.4 mphClear
3:15 AM32.2 °F26.2 °F79 %30.38 in10.0 miWSW (250°)10.4 mphClear
3:35 AM32.4 °F26.2 °F78 %30.37 in10.0 miWest (260°)10.4 mphClear
3:55 AM32.0 °F25.9 °F78 %30.38 in10.0 miWest (260°)10.4 mphScattered Clouds
4:15 AM32.9 °F25.9 °F75 %30.38 in10.0 miNE (40°)8.1 mphScattered Clouds
4:35 AM32.2 °F25.7 °F77 %30.38 in10.0 miNorth (350°)4.6 mphScattered Clouds
4:55 AM32.0 °F25.5 °F77 %30.39 in10.0 miCalmScattered Clouds
5:15 AM31.8 °F25.5 °F78 %30.39 in10.0 miNNW (330°)3.5 mphScattered Clouds
5:35 AM31.8 °F25.5 °F78 %30.39 in10.0 miNorth (360°)4.6 mphScattered Clouds
5:55 AM30.9 °F25.7 °F81 %30.39 in10.0 miNNW (340°)4.6 mphScattered Clouds
6:15 AM30.7 °F26.8 °F85 %30.39 in10.0 miNorth (350°)6.9 mphClear
6:35 AM30.9 °F27.9 °F88 %30.40 in10.0 miNorth (350°)5.8 mphClear
6:55 AM31.1 °F28.0 °F88 %30.40 in10.0 miCalmClear
7:15 AM30.6 °F27.5 °F88 %30.40 in10.0 miNW (320°)6.9 mphClear
7:35 AM29.5 °F26.4 °F88 %30.40 in10.0 miNW (310°)4.6 mphClear
7:55 AM29.3 °F26.8 °F90 %30.40 in4.0 miNorth (350°)5.8 mphClear
8:15 AM29.1 °F27.1 °F92 %30.40 in0.5 miNorth (360°)6.9 mphOvercast
8:35 AM29.1 °F27.3 °F93 %30.41 in0.2 miNorth (360°)4.6 mphOvercast
8:55 AM29.7 °F28.2 °F94 %30.41 in0.2 miNNW (340°)3.5 mphOvercast
9:15 AM30.7 °F29.3 °F94 %30.42 in0.2 miNorth (350°)5.8 mphOvercast
9:35 AM31.6 °F30.4 °F95 %30.42 in0.2 miCalmOvercast
12:15 PM42.1 °F32.5 °F69 %30.35 in10.0 miSouth (180°)6.9 mphClear
12:35 PM44.2 °F32.4 °F63 %30.33 in10.0 miCalmClear
12:55 PM45.9 °F32.0 °F58 %30.32 in10.0 miSouth (190°)5.8 mphClear
1:15 PM47.7 °F30.9 °F52 %30.30 in10.0 miSouth (170°)6.9 mphClear
1:35 PM49.5 °F31.1 °F49 %30.28 in10.0 miSSW (200°)9.2 mphClear
1:55 PM51.1 °F30.4 °F45 %30.27 in10.0 miSSW (210°)9.2 mphClear
2:15 PM52.5 °F28.2 °F39 %30.26 in10.0 miSW (230°)8.1 mph17.3 mphClear
2:35 PM53.4 °F29.1 °F39 %30.25 in10.0 miSSW (210°)11.5 mph18.4 mphClear
2:55 PM54.7 °F28.6 °F37 %30.23 in10.0 miSSW (210°)12.7 mph19.6 mphClear
3:15 PM55.4 °F28.2 °F35 %30.22 in10.0 miSSW (210°)10.4 mphClear
3:35 PM56.5 °F28.4 °F34 %30.20 in10.0 miWSW (240°)12.7 mph18.4 mphClear
3:55 PM57.2 °F28.0 °F33 %30.19 in10.0 miSW (230°)11.5 mphClear
4:15 PM57.7 °F28.0 °F32 %30.19 in10.0 miSSW (210°)10.4 mphClear
4:35 PM58.1 °F28.4 °F32 %30.17 in10.0 miSSW (200°)10.4 mphClear
4:55 PM58.5 °F28.0 °F31 %30.17 in10.0 miSSW (210°)11.5 mphClear
5:15 PM58.5 °F27.9 °F31 %30.15 in10.0 miSSW (200°)11.5 mphClear
5:35 PM58.3 °F28.2 °F32 %30.14 in10.0 miSSW (200°)12.7 mphClear
5:55 PM57.2 °F28.4 °F33 %30.13 in10.0 miSouth (190°)9.2 mphClear
6:15 PM55.2 °F29.5 °F37 %30.13 in10.0 miSSW (200°)8.1 mphClear
6:35 PM52.2 °F30.9 °F44 %30.13 in10.0 miSSW (200°)8.1 mphClear
6:55 PM49.6 °F30.7 °F48 %30.13 in10.0 miSouth (190°)9.2 mphClear
7:15 PM48.4 °F30.2 °F49 %30.13 in10.0 miSouth (180°)9.2 mphClear
7:35 PM46.9 °F30.0 °F52 %30.13 in10.0 miSouth (170°)10.4 mphClear
7:55 PM45.1 °F30.7 °F57 %30.13 in10.0 miSSE (160°)10.4 mphClear
8:15 PM45.1 °F30.6 °F57 %30.12 in10.0 miSouth (170°)8.1 mphClear
8:35 PM45.1 °F29.8 °F55 %30.12 in10.0 miSouth (180°)10.4 mphClear
8:55 PM45.3 °F29.7 °F54 %30.11 in10.0 miSSE (160°)9.2 mphClear
9:15 PM43.9 °F30.0 °F58 %30.11 in10.0 miSouth (170°)9.2 mphClear
9:35 PM42.8 °F30.2 °F61 %30.10 in10.0 miSSE (160°)10.4 mphClear
9:55 PM42.8 °F30.2 °F61 %30.10 in10.0 miSSE (150°)8.1 mphClear
10:15 PM42.8 °F29.8 °F60 %30.11 in10.0 miSouth (170°)8.1 mphClear
10:35 PM43.0 °F29.5 °F59 %30.11 in10.0 miSouth (180°)9.2 mphClear
10:55 PM43.7 °F29.5 °F57 %30.10 in10.0 miSouth (190°)3.5 mphClear
11:15 PM42.6 °F29.3 °F59 %30.10 in10.0 miCalmClear
11:35 PM42.8 °F28.9 °F58 %30.09 in10.0 miCalmClear
11:55 PM43.2 °F28.8 °F57 %30.08 in10.0 miSouth (170°)4.6 mphClear
Hourly data recorded from KF05, located miles away from Tolbert, Texas







STORIES FROM OUR PARTNERS